User: anonymous   Login
Location: Caltech
(34.1382°N, 118.1253°W)
Time: 20:22:49
(UTC-08:00)
Language:

Cosmos 2322 - Orbit

View from above orbital plane
View from above orbital plane
View from above satellite
View from above satellite

Ground track
Ground track

The orbit data is extracted from the following two-line orbital elements,

1 23704U 95058A   15024.70349961  .00000343  00000-0  20811-3 0  1957
2 23704 070.9865 076.5708 0010513 329.1474 169.4717 14.13293375992289
Epoch (UTC): 24 January 2015 16:53:02
Eccentricity: 0.0010513
inclination: 70.9865°
perigee height: 840 km
apogee height: 856 km
right ascension of ascending node: 76.5708°
argument of perigee: 329.1474°
revolutions per day: 14.13293375
mean anomaly at epoch: 169.4717°
orbit number at epoch: 99228

The dashed part of the orbit path shows where the satellite is in the earth's shadow,  

DLR